Tracking 29892 objects as of 21-Nov-2024
HD Live streaming from Space Station
objects crossing your sky now

ARIANE 44LP DEB

Track ARIANE 44LP DEB now!


NORAD ID: 33542
Int'l Code: 1988-109R
Perigee: 724.0 km
Apogee: 35,840.2 km
Inclination: 7.4 °
Period: 642.0 minutes
Semi major axis: 24653 km
RCS: 0.2707 m2 (medium)
Launch date: December 11, 1988
Source: France (FR)
Launch site: FRENCH GUIANA (FRGUI)

Note: This is SATELLITE DEBRIS
Your satellite tracking list
Your tracking list is empty




NASA's NSSDC Master Catalog

Two Line Element Set (TLE):
1 33542U 88109R   24325.52210819 -.00000069  00000-0 -19531-3 0  9996
2 33542   7.4336  51.3002 7122070  67.9780   4.8609  2.24282501158882
Source of the keplerian elements: AFSPC